Location: Birkweiler
(49.2044°N, 8.0350°E)
Time: 12:26:04
(UTC+00:00)

Daily predictions for brighter satellites

Satellite Brightness Start Highest point End
(mag) Time Altitude Azimuth Time Altitude Azimuth Time Altitude Azimuth
Cosmos 1536 Rocket 3.6 20:10:48 10° S 20:15:03 60° E 20:19:22 10° NNE
USA 245 3.2 20:13:27 10° SSE 20:17:19 58° ENE 20:20:26 10° N
Cosmos 1697 Rocket 2.8 20:12:07 10° NNW 20:17:45 71° ENE 20:23:20 10° SE
Cosmos 1980 Rocket 3.0 20:12:22 10° NNW 20:17:46 41° NE 20:23:07 10° ESE
SL-16 R/B 4.3 20:14:24 10° N 20:18:13 18° NE 20:22:01 10° ENE
CARTOSAT-1 3.6 20:14:17 10° SSE 20:18:35 82° ENE 20:22:56 10° NNW
Cosmos 1606 Rocket 4.4 20:14:44 10° N 20:18:43 34° ENE 20:22:41 10° SE
USA 276 2.2 20:20:03 10° W 20:23:05 73° N 20:26:07 10° E
Cosmos 1452 Rocket 3.5 20:18:07 10° SSW 20:23:22 79° ESE 20:28:38 10° NNE
Cosmos 2369 4.3 20:18:08 10° NNW 20:23:44 50° NE 20:29:17 10° SE
Lacrosse 5 3.9 20:21:29 10° WNW 20:25:06 20° SW 20:28:44 10° S
ARIANE 5 R/B 3.9 20:21:44 10° ESE 20:25:31 28° ENE 20:29:18 10° N
Cosmos 2344 4.4 20:17:11 10° NW 20:25:47 74° NE 20:37:44 10° SE
ERS-1 Rocket 3.4 20:22:49 10° SE 20:27:41 52° ENE 20:32:34 10° N
Cosmos 1900 4.5 20:22:54 10° NW 20:28:07 90° WSW 20:33:13 10° SE
Cosmos 1110 Rocket 4.1 20:23:01 10° S 20:28:10 57° ESE 20:33:23 10° NNE
COSMOS 2406 3.7 20:27:02 10° S 20:32:20 39° ESE 20:37:40 10° NE
Cosmos 2074 Rocket 4.1 20:31:46 10° N 20:38:04 86° W 20:44:19 10° S
Cosmos 1726 Rocket 4.1 20:36:57 10° N 20:41:06 44° ENE 20:44:55 12° SSE
Cosmos 968 Rocket 3.9 20:36:39 10° NNW 20:41:46 52° ENE 20:46:32 12° SE
Cosmos 1833 Rocket 2.7 20:37:31 10° SSW 20:43:07 76° ESE 20:48:45 10° NNE
Cosmos 1703 3.3 20:41:06 10° S 20:44:57 84° W 20:48:50 10° N
Cosmos 1408 4.0 20:45:32 13° SE 20:47:37 21° E 20:50:15 10° NE
Nadezhda 1 Rocket 4.0 20:44:16 10° S 20:50:16 68° E 20:56:18 10° NNE
USA 267 4.4 20:48:31 10° ENE 20:53:08 20° ESE 20:57:45 10° S
Cosmos 2322 Rocket 4.1 20:49:01 10° N 20:53:20 22° NE 20:57:38 10° E
RESURS DK-1 3.8 20:51:17 10° NW 20:54:57 31° WSW 20:58:37 10° S
Cosmos 1825 4.2 20:54:14 11° ESE 20:55:58 14° E 20:57:57 10° NE
Cosmos 1867 3.7 20:55:23 10° NW 21:00:53 78° NE 21:05:33 14° SE
Cosmos 2084 Rocket 3.6 21:00:03 10° NW 21:03:52 56° SW 21:06:56 16° SSE
X-37B 2.1 21:03:25 10° WSW 21:05:26 18° SSW 21:06:14 16° S
Cosmos 2278 4.1 21:00:28 10° NNW 21:06:07 55° NE 21:10:53 14° SE
Helios 1A Rocket 3.2 21:03:01 12° S 21:06:48 67° WSW 21:10:54 10° NNW
Cosmos 2154 Rocket 4.2 21:04:51 10° NNW 21:11:03 70° W 21:17:11 10° S
Meteor 1-11 4.5 21:07:11 13° SSE 21:12:04 51° E 21:17:27 10° NNE
Cosmos 1328 3.8 21:13:43 10° S 21:17:43 84° W 21:21:44 10° N
Cosmos 2082 Rocket 2.2 21:13:29 10° SSW 21:19:07 63° ESE 21:24:45 10° NNE
CZ-2C R/B 3.7 21:16:07 10° NNE 21:20:42 89° E 21:25:11 10° SSW
Cosmos 2228 4.3 21:19:07 10° NNW 21:22:59 35° W 21:26:51 10° SSW
Cosmos 1892 Rocket 3.5 21:21:08 13° S 21:24:59 78° E 21:29:21 10° NNE
SL-8 Rocket 4.1 21:22:18 10° N 21:28:32 68° ENE 21:33:12 18° SSE
Cosmos 2360 Rocket 4.0 21:24:07 10° NNW 21:28:44 24° NE 21:33:19 10° E
USA 234 3.9 21:23:00 10° E 21:29:22 56° NNE 21:35:45 10° WNW
Cosmos 2058 Rocket 3.0 21:26:49 10° N 21:31:16 83° E 21:34:19 20° SSE
Resurs 01 Rocket 4.4 21:30:17 10° WSW 21:31:34 11° W 21:32:51 10° WNW
Cosmos 1626 Rocket 4.3 21:33:53 21° SE 21:36:06 36° E 21:40:06 10° NNE
SAR-Lupe-1 4.4 21:32:48 10° NNE 21:36:17 46° E 21:38:02 25° SSE
Cosmos 1633 4.1 21:38:43 18° ESE 21:39:37 20° E 21:42:12 10° NE
Cosmos 1992 Rocket 4.3 21:36:31 18° S 21:40:10 49° ESE 21:45:14 10° NNE
SPOT 5 4.1 21:38:07 10° SSW 21:41:56 29° W 21:45:44 10° NW
Cosmos 1486 Rocket 4.1 21:36:42 10° NNW 21:41:56 73° ENE 21:45:24 22° SSE
Terra 2.7 21:39:42 14° SSW 21:43:36 43° W 21:48:11 10° NNW
SJ 16-02 2.7 21:42:36 10° N 21:46:33 30° ENE 21:49:28 16° ESE
Cosmos 1892 2.6 21:44:17 21° S 21:46:43 89° ESE 21:50:31 10° N
Cosmos 2366 rocket 4.1 21:41:54 10° N 21:48:17 79° E 21:52:47 21° SSE
FALCON 9 DEB 2.9 21:45:33 10° WNW 21:48:48 66° SSW 21:50:08 32° SE
Cosmos 2218 Rocket 4.1 21:46:48 10° N 21:53:16 85° E 21:57:46 21° S
ASTEX 1 3.4 21:50:10 10° N 21:55:13 90° WSW 21:58:44 20° S
USA 276 1.9 21:55:50 10° W 21:58:51 69° SSW 21:59:52 37° SE
ADEOS Rocket 4.1 21:55:59 16° SE 22:01:42 49° ENE 22:09:05 10° N
Cosmos 1980 Rocket 3.1 21:56:30 10° NW 22:01:46 40° WSW 22:05:29 18° SSW
ARIANE 5 R/B 3.7 21:58:45 16° SSW 22:01:51 36° W 22:05:58 10° NNW
GP-B 3.2 21:57:43 10° N 22:02:10 73° W 22:05:00 22° SSW
SL-16 R/B 2.4 21:57:45 10° NNW 22:03:26 68° ENE 22:07:09 22° SE
Cosmos 2219 Rocket 4.2 22:00:43 10° N 22:05:06 22° NE 22:09:29 10° E
Cosmos 1959 Rocket 4.5 21:59:52 10° N 22:06:00 82° W 22:10:08 22° S
Cosmos 1354 Rocket 4.2 22:05:41 10° NNW 22:10:59 65° ENE 22:14:08 24° SE
ATLAS 5 CENTAUR R/B 1.1 22:08:26 16° SW 22:11:19 79° SE 22:15:33 10° NE
SL-4 R/B 3.7 22:14:13 15° E 22:14:13 15° E 22:15:13 10° E
ERS-2 4.4 22:11:24 10° ENE 22:12:44 12° E 22:13:08 12° E
COSMOS 2406 4.5 22:11:11 10° WSW 22:16:39 42° NW 22:22:06 10° NNE
In-Cosmos 22 Rocket 4.3 22:14:45 17° SSW 22:19:04 71° WNW 22:24:30 10° N
Cosmos 1503 Rocket 4.0 22:14:51 10° NNW 22:20:11 90° NNE 22:23:03 28° SSE
Cosmos 1408 4.3 22:19:29 12° SW 22:22:09 27° WNW 22:25:10 10° NNW
Okean 1-7 Rocket 3.8 22:19:49 22° SSW 22:22:37 69° WNW 22:27:08 10° N
Cosmos 1869 3.8 22:21:14 10° NNW 22:25:02 50° W 22:26:47 28° SSW
Cosmos 1777 Rocket 4.4 22:21:32 10° NNW 22:26:47 59° ENE 22:29:53 24° SE
Cosmos 1758 Rocket 3.7 22:25:31 32° SSE 22:27:20 61° E 22:31:41 10° NNE
Cosmos 1825 2.8 22:28:51 24° SW 22:30:52 50° WNW 22:34:32 10° N
USA 267 3.2 22:30:30 10° ENE 22:37:01 65° SE 22:43:30 10° SW
Cosmos 1812 Rocket 3.6 22:32:43 10° NNW 22:37:12 73° W 22:39:08 33° S
Spot 4 3.8 22:35:11 31° S 22:37:30 79° WSW 22:42:20 10° NNW
Cosmos 2322 Rocket 2.2 22:32:30 10° NNW 22:38:13 87° ENE 22:41:25 27° SSE
Cosmos 44 4.3 22:38:36 24° SE 22:39:04 25° ESE 22:42:44 10° ENE
Cosmos-2242 2.9 22:37:13 10° NNW 22:41:30 81° W 22:43:11 36° S
BREEZE-M DEB (TANK) 3.7 22:39:32 10° W 22:42:51 81° S 22:55:55 10° ESE
Cosmos 1821 Rocket 4.0 22:36:36 10° N 22:42:52 84° W 22:46:22 28° S
Cosmos 1602 Rocket 3.9 22:48:54 27° SSW 22:51:05 60° WNW 22:55:22 10° N
Cosmos 2333 Rocket 2.8 22:50:38 10° NNW 22:56:18 54° NE 23:00:27 18° SE
BREEZE-M DEB (TANK) 4.4 22:45:16 10° WNW 23:02:13 80° SSW 23:06:22 12° ESE
ALOS 2 2.6 23:00:42 36° S 23:02:23 70° WSW 23:06:48 10° NNW
Cosmos 972 Rocket 4.2 22:58:22 10° NNW 23:03:33 71° ENE 23:06:40 27° SSE
Cosmos 2082 Rocket 4.0 22:58:42 10° WSW 23:03:37 29° NW 23:08:33 10° NNE
Nadezhda 3 Rocket 4.0 23:02:13 27° SSW 23:05:49 82° W 23:12:02 10° N
Gbstr 26 Del rocket 3.3 23:05:10 37° SSW 23:06:26 48° SE 23:11:21 10° ENE
Cosmos 1340 Rocket 2.9 23:05:53 42° SSE 23:06:56 58° E 23:10:52 10° NNE
Cosmos 1606 3.1 23:06:26 10° NNW 23:10:12 51° W 23:11:18 37° SW
USA 234 3.2 23:07:03 17° SE 23:12:16 74° SW 23:18:52 10° WNW
Cosmos 2360 Rocket 2.2 23:07:41 10° NNW 23:13:23 79° WSW 23:16:14 31° SSE
Cosmos 1633 4.0 23:12:29 21° WSW 23:13:56 29° WNW 23:17:01 10° N
BREEZE-M DEB (TANK) 3.3 23:06:26 10° WSW 23:15:43 85° S 23:18:48 10° E
Cosmos 1953 Rocket 3.5 23:15:54 39° S 23:17:30 75° E 23:21:55 10° NNE
Cosmos 2333 4.3 23:14:39 10° NNW 23:20:28 78° ENE 23:23:58 25° SE
CRYOSAT 2 4.4 23:19:59 33° SSE 23:22:09 72° E 23:27:03 10° N
H-2A R/B 4.0 23:20:50 10° N 23:24:57 54° WNW 23:26:52 29° SW
SJ 16-02 2.3 23:21:07 10° NW 23:25:07 34° WSW 23:26:24 28° SW
Cosmos 1825 Rocket 3.8 23:24:44 32° SW 23:26:32 59° WNW 23:30:51 10° N
PSLV R/B 4.0 23:22:49 10° NNE 23:27:32 60° E 23:29:18 35° SSE
Cosmos 1782 4.0 23:24:24 10° N 23:28:02 33° ENE 23:29:46 23° ESE
Cosmos 2058 3.3 23:28:04 33° SW 23:29:42 57° WNW 23:33:50 10° N
Cosmos 1833 4.2 23:27:13 31° S 23:29:54 71° ESE 23:35:30 10° NNE
Cosmos 990 Rocket 4.2 23:29:09 10° NNW 23:34:17 65° ENE 23:37:18 25° SE
USA 290 3.5 23:34:33 10° N 23:37:34 35° ENE 23:38:48 25° ESE
Cosmos 2237 Rocket 4.1 23:33:49 10° NNW 23:38:39 28° NE 23:43:27 10° ESE
Cosmos 2221 2.5 23:34:20 10° NNW 23:38:42 82° W 23:40:15 40° S
COSMOS 2428 3.1 23:37:13 10° NNW 23:42:54 61° ENE 23:47:19 17° SE
ERS-2 2.3 23:42:54 10° N 23:46:28 61° WNW 23:47:29 40° SW
Cosmos 1842 Rocket 3.5 23:42:08 10° N 23:46:38 89° W 23:48:20 38° S
Cosmos 2297 Rocket 4.3 23:44:09 10° SE 23:46:50 14° E 23:49:30 10° ENE
SL-16 R/B 3.7 23:42:43 10° NW 23:47:01 22° WSW 23:49:00 19° SW
ISS -2.9 23:47:44 36° ESE 23:47:44 36° ESE 23:50:16 10° ENE
COSMOS 2455 4.2 23:41:30 10° NNW 23:47:05 37° NE 23:52:37 10° ESE
ADEOS Rocket 4.1 23:42:56 24° SSW 23:47:10 46° W 23:54:35 10° NNW
Nimbus 7 Rocket 4.4 23:42:56 10° NNE 23:48:56 86° ESE 23:52:10 29° SSW
COSMOS 2487 2.1 23:49:36 59° ESE 23:49:43 59° ESE 23:52:45 10° NNE
Cosmos 2219 Rocket 2.2 23:44:08 10° NNW 23:49:51 90° WSW 23:53:12 26° SSE
Cosmos 468 Rocket 4.5 23:49:02 30° SSE 23:51:14 49° ESE 23:56:21 10° NNE
SL-4 R/B 1.6 23:49:35 28° WSW 23:51:22 90° E 23:55:08 10° ENE
Cosmos 1934 Rocket 4.4 23:47:10 10° NNW 23:53:02 51° W 23:56:10 27° SSW
SL-27 R/B 2.1 23:53:43 62° S 23:54:09 77° ESE 23:57:26 10° NNE
Cosmos 540 Rocket 4.3 23:52:58 26° SSE 23:55:02 37° ESE 23:59:45 10° NE
